Вернуться в каталог

COSMOS 2251 DEB

АктивенLEO
NORAD 34997·DEBRIS·🇷🇺 Russia

Запущен Jun 16, 1993 с Plesetsk Cosmodrome

Loading…

Ближайшие Пролёты (ближайшие 24 часа)

TLE

СвежийSource: Space-Track

Эпоха: Sep 14, 2026, 10:08 UTC

1 34997U 93036AFV 26257.42249980  .00002789  00000-0  72202-3 0  9995
2 34997  73.8773 151.0138 0090326  70.5064 290.5823 14.47917065747348

Отслеживайте COSMOS 2251 DEB в реальном времени с AllMySat

Download on the App Store